PDT5989 KERI-KCLT

Flight info

Callsign PDT5989
Flight time 1h 26m
Altitude 34000
Route EWC AHTIY BURGS HVQ LNDIZ PARQR4
Aircraft E145/M-SDFGIRW/S

Departure

Time 2026-04-25 20:57
Airport Erie International Tom Ridge Field (KERI)

Arrival

Time 2026-04-25 22:24
Airport Charlotte Douglas International Airport (KCLT)
Time Latitude Longitude Altitude Speed Heading
2026-04-25 20:32 42.08251 -80.18119 736 ft 0 kts
2026-04-25 20:50 42.08252 -80.18119 736 ft 0 kts
2026-04-25 20:50 42.08241 -80.18121 736 ft 2 kts
2026-04-25 20:50 42.08227 -80.18124 736 ft 2 kts
2026-04-25 20:51 42.08212 -80.18127 736 ft 2 kts 15°
2026-04-25 20:51 42.08198 -80.18136 736 ft 2 kts 38°
2026-04-25 20:51 42.08189 -80.18149 736 ft 0 kts 57°
2026-04-25 20:51 42.08187 -80.18152 736 ft 0 kts 57°
2026-04-25 20:52 42.08187 -80.18151 736 ft 0 kts 57°
2026-04-25 20:53 42.08188 -80.18151 736 ft 0 kts 57°
2026-04-25 20:54 42.08194 -80.18138 736 ft 2 kts 56°
2026-04-25 20:54 42.08205 -80.18098 736 ft 6 kts 94°
2026-04-25 20:54 42.08174 -80.18043 736 ft 8 kts 139°
2026-04-25 20:54 42.08120 -80.17992 736 ft 10 kts 172°
2026-04-25 20:55 42.08091 -80.18072 736 ft 11 kts 272°
2026-04-25 20:55 42.08094 -80.18188 736 ft 13 kts 271°
2026-04-25 20:55 42.08062 -80.18288 736 ft 13 kts 202°
2026-04-25 20:55 42.07965 -80.18327 736 ft 15 kts 192°
2026-04-25 20:56 42.07859 -80.18284 736 ft 17 kts 153°
2026-04-25 20:56 42.07793 -80.18192 736 ft 13 kts 56°
2026-04-25 20:56 42.07826 -80.18137 736 ft 0 kts 53°
2026-04-25 20:56 42.07883 -80.18032 736 ft 48 kts 53°
2026-04-25 20:57 42.08221 -80.17399 735 ft 115 kts 54°
2026-04-25 20:57 42.08755 -80.16338 898 ft 148 kts 55°
2026-04-25 20:57 42.09327 -80.15153 1553 ft 152 kts 52°
2026-04-25 20:57 42.09907 -80.13930 2111 ft 170 kts 55°
2026-04-25 20:58 42.10606 -80.12415 2293 ft 213 kts 55°
2026-04-25 20:58 42.11441 -80.10626 2854 ft 237 kts 54°
2026-04-25 20:58 42.12343 -80.08673 3411 ft 248 kts 54°
2026-04-25 20:58 42.13232 -80.06708 4143 ft 250 kts 54°
2026-04-25 20:59 42.14090 -80.04755 5220 ft 249 kts 54°
2026-04-25 20:59 42.14901 -80.02661 6089 ft 261 kts 67°
2026-04-25 20:59 42.14964 -80.00153 6929 ft 282 kts 98°
2026-04-25 20:59 42.14050 -79.97820 7785 ft 297 kts 129°
2026-04-25 21:00 42.12315 -79.96216 8537 ft 309 kts 159°
2026-04-25 21:00 42.11632 -79.95943 8765 ft 312 kts 170°
2026-04-25 21:00 42.06515 -79.98481 10678 ft 309 kts 225°
2026-04-25 21:01 42.04595 -80.00048 11053 ft 339 kts 204°
2026-04-25 21:01 42.02227 -80.00612 11577 ft 356 kts 188°
2026-04-25 21:01 41.99745 -80.01024 12129 ft 366 kts 190°
2026-04-25 21:01 41.97178 -80.01470 12647 ft 378 kts 190°
2026-04-25 21:02 41.94548 -80.01929 13321 ft 383 kts 189°
2026-04-25 21:02 41.91895 -80.02392 13995 ft 387 kts 189°
2026-04-25 21:02 41.89240 -80.02854 14700 ft 389 kts 189°
2026-04-25 21:02 41.86585 -80.03316 15622 ft 383 kts 189°
2026-04-25 21:03 41.83947 -80.03776 16393 ft 382 kts 190°
2026-04-25 21:03 41.81307 -80.04235 17083 ft 382 kts 190°
2026-04-25 21:03 41.78683 -80.04691 17785 ft 381 kts 190°
2026-04-25 21:03 41.76105 -80.05138 18611 ft 375 kts 190°
2026-04-25 21:04 41.73533 -80.05585 19444 ft 370 kts 191°
2026-04-25 21:04 41.71006 -80.06023 20211 ft 366 kts 191°
2026-04-25 21:04 41.68495 -80.06458 20992 ft 360 kts 191°
2026-04-25 21:04 41.66056 -80.06880 21726 ft 355 kts 191°
2026-04-25 21:05 41.63611 -80.07303 22464 ft 350 kts 192°
2026-04-25 21:05 41.61204 -80.07719 23151 ft 347 kts 192°
2026-04-25 21:05 41.58837 -80.08127 23835 ft 343 kts 192°
2026-04-25 21:05 41.56493 -80.08530 24513 ft 338 kts 192°
2026-04-25 21:06 41.54214 -80.08923 25190 ft 333 kts 193°
2026-04-25 21:06 41.51939 -80.09315 25903 ft 326 kts 193°
2026-04-25 21:06 41.49723 -80.09696 26586 ft 320 kts 193°
2026-04-25 21:06 41.48241 -80.09952 26981 ft 318 kts 194°
2026-04-25 21:07 41.45360 -80.10448 27813 ft 312 kts 194°
2026-04-25 21:07 41.43247 -80.10810 28403 ft 308 kts 194°
2026-04-25 21:07 41.41130 -80.11175 28965 ft 304 kts 194°
2026-04-25 21:07 41.39034 -80.11534 29481 ft 302 kts 194°
2026-04-25 21:08 41.36959 -80.11890 29998 ft 299 kts 195°
2026-04-25 21:08 41.34927 -80.12239 30515 ft 296 kts 195°
2026-04-25 21:08 41.32884 -80.12588 31057 ft 293 kts 195°
2026-04-25 21:08 41.30872 -80.12932 31498 ft 292 kts 195°
2026-04-25 21:09 41.26887 -80.13613 32436 ft 288 kts 194°
2026-04-25 21:09 41.24896 -80.13953 32899 ft 286 kts 195°
2026-04-25 21:09 41.22934 -80.14289 33312 ft 285 kts 195°
2026-04-25 21:10 41.20957 -80.14627 33700 ft 285 kts 194°
2026-04-25 21:10 41.18951 -80.14971 33875 ft 292 kts 194°
2026-04-25 21:10 41.16896 -80.15323 33891 ft 303 kts 194°
2026-04-25 21:10 41.14763 -80.15687 33895 ft 314 kts 194°
2026-04-25 21:11 41.12574 -80.16060 33895 ft 325 kts 194°
2026-04-25 21:11 41.10267 -80.16453 33893 ft 336 kts 193°
2026-04-25 21:11 41.07909 -80.16853 33891 ft 347 kts 193°
2026-04-25 21:11 41.05474 -80.17266 33895 ft 355 kts 193°
2026-04-25 21:12 41.00503 -80.18108 33890 ft 367 kts 193°
2026-04-25 21:12 40.96249 -80.18829 33888 ft 377 kts 193°
2026-04-25 21:13 40.90095 -80.19871 33894 ft 388 kts 193°
2026-04-25 21:13 40.84681 -80.20785 33917 ft 397 kts 193°
2026-04-25 21:14 40.79193 -80.21787 33917 ft 396 kts 194°
2026-04-25 21:14 40.73756 -80.22835 33915 ft 394 kts 194°
2026-04-25 21:15 40.68351 -80.23875 33917 ft 396 kts 194°
2026-04-25 21:15 40.62870 -80.24927 33909 ft 398 kts 194°
2026-04-25 21:16 40.57373 -80.25980 33904 ft 399 kts 194°
2026-04-25 21:16 40.51902 -80.27026 33900 ft 397 kts 194°
2026-04-25 21:17 40.46473 -80.28062 33897 ft 391 kts 194°
2026-04-25 21:17 40.41108 -80.29085 33898 ft 387 kts 194°
2026-04-25 21:18 40.35780 -80.30100 33897 ft 388 kts 194°
2026-04-25 21:18 40.30411 -80.31120 33898 ft 391 kts 194°
2026-04-25 21:19 40.25013 -80.32144 33898 ft 393 kts 194°
2026-04-25 21:19 40.19595 -80.33170 33900 ft 395 kts 194°
2026-04-25 21:20 40.15054 -80.34030 33897 ft 396 kts 194°
2026-04-25 21:20 40.08656 -80.35238 33893 ft 397 kts 194°
2026-04-25 21:21 40.03186 -80.36269 33888 ft 398 kts 194°
2026-04-25 21:21 39.97704 -80.37300 33877 ft 398 kts 194°
2026-04-25 21:22 39.92309 -80.38646 33867 ft 391 kts 203°
2026-04-25 21:22 39.87595 -80.41966 33869 ft 384 kts 219°
2026-04-25 21:23 39.83300 -80.46079 33866 ft 385 kts 218°
2026-04-25 21:23 39.78962 -80.50141 33869 ft 385 kts 218°
2026-04-25 21:24 39.74632 -80.54181 33867 ft 386 kts 218°
2026-04-25 21:24 39.70261 -80.58250 33867 ft 381 kts 218°
2026-04-25 21:25 39.65981 -80.62107 33867 ft 374 kts 217°
2026-04-25 21:25 39.61728 -80.65919 33876 ft 370 kts 217°
2026-04-25 21:26 39.57501 -80.69704 33882 ft 370 kts 217°
2026-04-25 21:26 39.53234 -80.73518 33882 ft 371 kts 216°
2026-04-25 21:27 39.48998 -80.77297 33880 ft 372 kts 217°
2026-04-25 21:27 39.44732 -80.81099 33880 ft 372 kts 217°
2026-04-25 21:28 39.40449 -80.84910 33879 ft 373 kts 216°
2026-04-25 21:28 39.36162 -80.88718 33882 ft 373 kts 217°
2026-04-25 21:29 39.31886 -80.92510 33880 ft 373 kts 217°
2026-04-25 21:29 39.27631 -80.96281 33881 ft 373 kts 216°
2026-04-25 21:30 39.23335 -81.00079 33880 ft 373 kts 217°
2026-04-25 21:30 39.19765 -81.03232 33879 ft 373 kts 217°
2026-04-25 21:31 39.14762 -81.07643 33879 ft 375 kts 217°
2026-04-25 21:31 39.10437 -81.11451 33878 ft 377 kts 216°
2026-04-25 21:32 39.06083 -81.15279 33877 ft 380 kts 217°
2026-04-25 21:32 39.01723 -81.19106 33877 ft 381 kts 217°
2026-04-25 21:33 38.97337 -81.22949 33878 ft 383 kts 217°
2026-04-25 21:33 38.92966 -81.26774 33875 ft 380 kts 217°
2026-04-25 21:34 38.88628 -81.30564 33879 ft 376 kts 217°
2026-04-25 21:34 38.84323 -81.34320 33887 ft 373 kts 217°
2026-04-25 21:35 38.80019 -81.38069 33882 ft 372 kts 217°
2026-04-25 21:35 38.75766 -81.41768 33880 ft 370 kts 217°
2026-04-25 21:36 38.71517 -81.45459 33872 ft 371 kts 216°
2026-04-25 21:36 38.67221 -81.49185 33864 ft 373 kts 216°
2026-04-25 21:37 38.63658 -81.52271 33867 ft 374 kts 216°
2026-04-25 21:37 38.58587 -81.56657 33870 ft 376 kts 217°
2026-04-25 21:38 38.54267 -81.60387 33871 ft 377 kts 217°
2026-04-25 21:38 38.49913 -81.64140 33871 ft 378 kts 216°
2026-04-25 21:39 38.45533 -81.67911 33883 ft 379 kts 216°
2026-04-25 21:39 38.41145 -81.71684 33890 ft 381 kts 216°
2026-04-25 21:40 38.36659 -81.75269 33885 ft 384 kts 208°
2026-04-25 21:40 38.31470 -81.77067 33880 ft 394 kts 190°
2026-04-25 21:41 38.25922 -81.76925 33887 ft 399 kts 184°
2026-04-25 21:41 38.20371 -81.76794 33884 ft 399 kts 184°
2026-04-25 21:42 38.14807 -81.76709 33884 ft 400 kts 184°
2026-04-25 21:42 38.09214 -81.76630 33879 ft 401 kts 184°
2026-04-25 21:43 38.03663 -81.76553 33882 ft 401 kts 184°
2026-04-25 21:43 37.98052 -81.76474 33882 ft 402 kts 184°
2026-04-25 21:44 37.92471 -81.76396 33888 ft 402 kts 184°
2026-04-25 21:45 37.84050 -81.76279 33899 ft 404 kts 184°
2026-04-25 21:45 37.78417 -81.76201 33902 ft 405 kts 184°
2026-04-25 21:46 37.72789 -81.76123 33906 ft 406 kts 184°
2026-04-25 21:46 37.67112 -81.76045 33905 ft 406 kts 184°
2026-04-25 21:47 37.61461 -81.75966 33903 ft 405 kts 184°
2026-04-25 21:47 37.55854 -81.75889 33907 ft 403 kts 184°
2026-04-25 21:48 37.50271 -81.75812 33905 ft 401 kts 184°
2026-04-25 21:48 37.44675 -81.75735 33907 ft 399 kts 184°
2026-04-25 21:49 37.39093 -81.75658 33913 ft 402 kts 184°
2026-04-25 21:49 37.33505 -81.75583 33915 ft 406 kts 184°
2026-04-25 21:50 37.27812 -81.75504 33916 ft 409 kts 184°
2026-04-25 21:50 37.22097 -81.75425 33921 ft 412 kts 184°
2026-04-25 21:51 37.16362 -81.75346 33521 ft 409 kts 184°
2026-04-25 21:51 37.13548 -81.75306 32954 ft 396 kts 184°
2026-04-25 21:51 37.10844 -81.75275 32398 ft 383 kts 186°
2026-04-25 21:51 37.08239 -81.75476 31847 ft 371 kts 189°
2026-04-25 21:52 37.05699 -81.75688 31309 ft 362 kts 189°
2026-04-25 21:52 37.03194 -81.75888 30766 ft 360 kts 189°
2026-04-25 21:52 37.00692 -81.76083 30224 ft 360 kts 189°
2026-04-25 21:52 36.98197 -81.76276 29691 ft 361 kts 189°
2026-04-25 21:53 36.95682 -81.76469 29166 ft 361 kts 188°
2026-04-25 21:53 36.93171 -81.76681 28644 ft 362 kts 188°
2026-04-25 21:53 36.90693 -81.76897 28317 ft 356 kts 189°
2026-04-25 21:53 36.88257 -81.77111 28073 ft 348 kts 189°
2026-04-25 21:54 36.85850 -81.77322 27855 ft 340 kts 189°
2026-04-25 21:54 36.83525 -81.77525 27642 ft 335 kts 189°
2026-04-25 21:54 36.81215 -81.77729 27437 ft 334 kts 188°
2026-04-25 21:54 36.78889 -81.77933 27236 ft 333 kts 188°
2026-04-25 21:55 36.76592 -81.78133 27026 ft 333 kts 188°
2026-04-25 21:55 36.74260 -81.78337 26797 ft 333 kts 189°
2026-04-25 21:55 36.71966 -81.78537 26594 ft 334 kts 188°
2026-04-25 21:55 36.69636 -81.78741 26403 ft 334 kts 188°
2026-04-25 21:56 36.67316 -81.78943 26195 ft 334 kts 188°
2026-04-25 21:56 36.65793 -81.79076 26075 ft 334 kts 189°
2026-04-25 21:56 36.62692 -81.79346 25801 ft 332 kts 189°
2026-04-25 21:56 36.60377 -81.79547 25597 ft 331 kts 188°
2026-04-25 21:57 36.58088 -81.79746 25391 ft 330 kts 188°
2026-04-25 21:57 36.55790 -81.79946 25172 ft 328 kts 188°
2026-04-25 21:57 36.53529 -81.80142 24988 ft 327 kts 188°
2026-04-25 21:57 36.51263 -81.80339 24782 ft 325 kts 188°
2026-04-25 21:58 36.49001 -81.80535 24579 ft 323 kts 188°
2026-04-25 21:58 36.46738 -81.80732 24358 ft 324 kts 188°
2026-04-25 21:58 36.44477 -81.80841 24148 ft 329 kts 178°
2026-04-25 21:58 36.42281 -81.80015 23973 ft 339 kts 156°
2026-04-25 21:59 36.40208 -81.78587 23788 ft 340 kts 155°
2026-04-25 21:59 36.38149 -81.77187 23582 ft 340 kts 155°
2026-04-25 21:59 36.36065 -81.75774 23384 ft 339 kts 155°
2026-04-25 22:00 36.31931 -81.72976 22922 ft 340 kts 155°
2026-04-25 22:00 36.29836 -81.71560 22628 ft 341 kts 155°
2026-04-25 22:00 36.27740 -81.70145 22352 ft 341 kts 155°
2026-04-25 22:00 36.25679 -81.68753 22162 ft 339 kts 155°
2026-04-25 22:01 36.23611 -81.67358 21970 ft 336 kts 155°
2026-04-25 22:01 36.21569 -81.65981 21771 ft 335 kts 155°
2026-04-25 22:01 36.19509 -81.64593 21571 ft 333 kts 155°
2026-04-25 22:01 36.18166 -81.63689 21438 ft 332 kts 155°
2026-04-25 22:02 36.15462 -81.61868 21174 ft 330 kts 155°
2026-04-25 22:02 36.13433 -81.60504 20970 ft 329 kts 154°
2026-04-25 22:02 36.11444 -81.59167 20773 ft 328 kts 155°
2026-04-25 22:02 36.09429 -81.57813 20574 ft 326 kts 155°
2026-04-25 22:03 36.07434 -81.56474 20375 ft 325 kts 155°
2026-04-25 22:03 36.05446 -81.55140 20183 ft 324 kts 154°
2026-04-25 22:03 36.03468 -81.53813 19984 ft 323 kts 154°
2026-04-25 22:03 36.01510 -81.52501 19792 ft 322 kts 154°
2026-04-25 22:04 35.99531 -81.51176 19599 ft 323 kts 154°
2026-04-25 22:04 35.97480 -81.50013 19426 ft 323 kts 162°
2026-04-25 22:04 35.95463 -81.48807 19258 ft 328 kts 155°
2026-04-25 22:04 35.93439 -81.47478 19057 ft 330 kts 155°
2026-04-25 22:05 35.91388 -81.46140 18859 ft 332 kts 155°
2026-04-25 22:05 35.89360 -81.44813 18676 ft 334 kts 155°
2026-04-25 22:05 35.87304 -81.43417 18513 ft 336 kts 152°
2026-04-25 22:05 35.85265 -81.41969 18307 ft 338 kts 152°
2026-04-25 22:06 35.83228 -81.40517 18073 ft 340 kts 153°
2026-04-25 22:06 35.81198 -81.39071 17867 ft 342 kts 152°
2026-04-25 22:06 35.79131 -81.37598 17634 ft 343 kts 152°
2026-04-25 22:06 35.77039 -81.36171 17400 ft 344 kts 154°
2026-04-25 22:07 35.74977 -81.34660 17161 ft 339 kts 152°
2026-04-25 22:07 35.73651 -81.33697 16998 ft 333 kts 153°
2026-04-25 22:07 35.71025 -81.31809 16678 ft 323 kts 153°
2026-04-25 22:07 35.69089 -81.30425 16435 ft 316 kts 153°
2026-04-25 22:08 35.67195 -81.29072 16177 ft 311 kts 153°
2026-04-25 22:08 35.65336 -81.27746 15935 ft 306 kts 153°
2026-04-25 22:08 35.63497 -81.26436 15691 ft 302 kts 153°
2026-04-25 22:08 35.61703 -81.25157 15391 ft 301 kts 153°
2026-04-25 22:09 35.59883 -81.23859 15029 ft 302 kts 153°
2026-04-25 22:09 35.58060 -81.22564 14668 ft 302 kts 153°
2026-04-25 22:09 35.56263 -81.21260 14308 ft 302 kts 150°
2026-04-25 22:09 35.54494 -81.19842 13943 ft 302 kts 150°
2026-04-25 22:10 35.52727 -81.18440 13467 ft 306 kts 150°
2026-04-25 22:10 35.50921 -81.17010 12977 ft 309 kts 150°
2026-04-25 22:10 35.49118 -81.15581 12479 ft 311 kts 150°
2026-04-25 22:10 35.47295 -81.14138 11995 ft 312 kts 149°
2026-04-25 22:11 35.45486 -81.12707 11503 ft 310 kts 150°
2026-04-25 22:11 35.43702 -81.11295 11005 ft 304 kts 150°
2026-04-25 22:11 35.41929 -81.09895 10482 ft 299 kts 150°
2026-04-25 22:11 35.40139 -81.08684 9981 ft 291 kts 165°
2026-04-25 22:12 35.38190 -81.08331 9495 ft 283 kts 178°
2026-04-25 22:12 35.36226 -81.08153 8983 ft 280 kts 177°
2026-04-25 22:12 35.34304 -81.07980 8482 ft 277 kts 178°
2026-04-25 22:12 35.33016 -81.07864 8221 ft 272 kts 178°
2026-04-25 22:13 35.30553 -81.07645 7711 ft 264 kts 178°
2026-04-25 22:13 35.28777 -81.07485 7305 ft 246 kts 178°
2026-04-25 22:13 35.27106 -81.07338 6924 ft 231 kts 178°
2026-04-25 22:13 35.25546 -81.07199 6605 ft 225 kts 178°
2026-04-25 22:14 35.23975 -81.07060 6243 ft 227 kts 178°
2026-04-25 22:14 35.22385 -81.06919 5881 ft 229 kts 178°
2026-04-25 22:14 35.20812 -81.06779 5665 ft 224 kts 178°
2026-04-25 22:14 35.19284 -81.06642 5525 ft 210 kts 179°
2026-04-25 22:15 35.17857 -81.06516 5313 ft 201 kts 178°
2026-04-25 22:15 35.16492 -81.06394 5101 ft 193 kts 179°
2026-04-25 22:15 35.15184 -81.06278 4899 ft 186 kts 179°
2026-04-25 22:16 35.12653 -81.06055 4485 ft 176 kts 179°
2026-04-25 22:16 35.11445 -81.05948 4279 ft 174 kts 179°
2026-04-25 22:16 35.10221 -81.05840 4095 ft 182 kts 179°
2026-04-25 22:16 35.08908 -81.05724 3912 ft 190 kts 180°
2026-04-25 22:17 35.07590 -81.05607 3718 ft 191 kts 179°
2026-04-25 22:17 35.06271 -81.05489 3524 ft 192 kts 180°
2026-04-25 22:17 35.04926 -81.05368 3328 ft 193 kts 179°
2026-04-25 22:17 35.03588 -81.05257 3135 ft 193 kts 180°
2026-04-25 22:18 35.02278 -81.04919 2977 ft 194 kts 151°
2026-04-25 22:18 35.01462 -81.03683 2981 ft 188 kts 105°
2026-04-25 22:18 35.01414 -81.02087 3008 ft 195 kts 83°
2026-04-25 22:18 35.01518 -81.00366 2988 ft 207 kts 83°
2026-04-25 22:19 35.01619 -80.98572 2989 ft 216 kts 84°
2026-04-25 22:19 35.02053 -80.96832 2975 ft 218 kts 52°
2026-04-25 22:19 35.03209 -80.95734 2991 ft 207 kts 22°
2026-04-25 22:19 35.04485 -80.95010 2963 ft 194 kts 13°
2026-04-25 22:20 35.05764 -80.94889 2977 ft 178 kts 355°
2026-04-25 22:20 35.06967 -80.94698 2975 ft 172 kts
2026-04-25 22:20 35.08113 -80.94358 2921 ft 167 kts
2026-04-25 22:20 35.09287 -80.94264 2735 ft 172 kts 356°
2026-04-25 22:21 35.10530 -80.94300 2521 ft 179 kts 353°
2026-04-25 22:21 35.11760 -80.94383 2302 ft 166 kts 352°
2026-04-25 22:21 35.12832 -80.94468 2083 ft 143 kts 352°
2026-04-25 22:21 35.13763 -80.94546 1891 ft 128 kts 350°
2026-04-25 22:22 35.14675 -80.94630 1732 ft 134 kts 351°
2026-04-25 22:22 35.15615 -80.94709 1550 ft 135 kts 351°
2026-04-25 22:22 35.16548 -80.94788 1374 ft 137 kts 352°
2026-04-25 22:22 35.17523 -80.94872 1198 ft 141 kts 352°
2026-04-25 22:23 35.18501 -80.94949 1006 ft 139 kts 353°
2026-04-25 22:23 35.19478 -80.95037 833 ft 140 kts 353°
2026-04-25 22:23 35.20436 -80.95116 699 ft 136 kts 353°
2026-04-25 22:23 35.21239 -80.95189 709 ft 87 kts 357°
2026-04-25 22:24 35.21758 -80.95229 720 ft 55 kts 357°
2026-04-25 22:24 35.21988 -80.95166 723 ft 14 kts 23°
2026-04-25 22:24 35.22032 -80.95074 724 ft 15 kts 128°
2026-04-25 22:24 35.21918 -80.95046 722 ft 18 kts 176°
2026-04-25 22:25 35.21773 -80.95033 718 ft 23 kts 176°
2026-04-25 22:25 35.21595 -80.95018 713 ft 27 kts 176°
2026-04-25 22:25 35.21398 -80.95001 709 ft 27 kts 175°
2026-04-25 22:25 35.21240 -80.94987 706 ft 18 kts 173°
2026-04-25 22:26 35.21208 -80.94890 703 ft 16 kts 52°
2026-04-25 22:26 35.21285 -80.94772 704 ft 18 kts 59°
2026-04-25 22:26 35.21331 -80.94621 704 ft 19 kts 66°
2026-04-25 22:26 35.21415 -80.94486 708 ft 19 kts 49°
2026-04-25 22:27 35.21503 -80.94361 714 ft 18 kts 48°
2026-04-25 22:27 35.21588 -80.94243 717 ft 18 kts 49°
2026-04-25 22:27 35.21670 -80.94128 721 ft 17 kts 48°
2026-04-25 22:27 35.21754 -80.94016 725 ft 17 kts 47°
2026-04-25 22:28 35.21836 -80.93906 729 ft 17 kts 48°
2026-04-25 22:28 35.21918 -80.93792 731 ft 18 kts 49°
2026-04-25 22:28 35.22009 -80.93710 733 ft 16 kts 356°
2026-04-25 22:28 35.22125 -80.93720 735 ft 16 kts 356°
2026-04-25 22:29 35.22248 -80.93731 735 ft 18 kts 355°
2026-04-25 22:29 35.22369 -80.93742 735 ft 10 kts 355°
2026-04-25 22:29 35.22395 -80.93806 734 ft 11 kts 267°
2026-04-25 22:30 35.22556 -80.93909 732 ft 16 kts 357°
2026-04-25 22:30 35.22634 -80.93941 731 ft 12 kts 295°
2026-04-25 22:30 35.22638 -80.94029 730 ft 7 kts 245°
2026-04-25 22:30 35.22615 -80.94041 730 ft 4 kts 181°
2026-04-25 22:31 35.22594 -80.94041 730 ft 0 kts 180°